Frankfort, KY

7:11 AM EDT on September 21, 2017 (GMT -0400)
Capital City

Weather History for KFFT - March, 2012

Change the Weather History Date:

Tuesday, March 13, 2012

  Actual Average Record
Temperature  
Mean Temperature 64 °F 44 °F  
Max Temperature 75 °F 55 °F 80 °F (2007)
Min Temperature 53 °F 33 °F 2 °F (1960)
Degree Days  
Heating Degree Days 1 21  
Month to date heating degree days 232 301  
Since 1 July heating degree days 3442 3940  
Cooling Degree Days 0 0  
Month to date cooling degree days 0 0  
Year to date cooling degree days 0 0  
Growing Degree Days 16 (Base 50)    
Moisture  
Dew Point 57 °F    
Average Humidity 73    
Maximum Humidity 97    
Minimum Humidity 49    
Precipitation  
Precipitation 0.00 in 0.15 in 2.30 in (1986)
Month to date precipitation 1.76 1.66  
Year to date precipitation 7.50 8.21  
Sea Level Pressure  
Sea Level Pressure 30.10 in    
Wind  
Wind Speed 7 mph (SW)    
Max Wind Speed 18 mph    
Max Gust Speed 25 mph    
Visibility 10 miles    
Events      
T = Trace of Precipitation, MM = Missing Value Source: NWS Daily Summary

Daily Weather History Graph

Daily Weather History Graph

Search for Another Location

Airport or City:

Trip Planner

Search our weather history database for the weather conditions in past years. The results will help you decide how hot, cold, wet, or windy it might be!

Date:

Astronomy

Mar. 13, 2012 Rise Set
Actual Time 7:53 AM EDT 7:45 PM EDT
Civil Twilight 7:26 AM EDT 8:11 PM EDT
Nautical Twilight 6:56 AM EDT 8:42 PM EDT
Astronomical Twilight 6:25 AM EDT 9:13 PM EDT
Moon 1:10 AM EDT (3/13) 11:11 AM EDT (3/13)
Length of Visible Light 12h 44m
Length of Day
11h 52m
Waning Gibbous, 66% of the Moon is Illuminated
Mar 13
Waning Gibbous
Mar 14
Last Quarter
Mar 22
New
Mar 30
First Quarter
Apr 6
Full

Hourly Weather History & Observations

Time (EDT) Temp. Dew Point Humidity Pressure Visibility Wind Dir Wind Speed Gust Speed Precip Events Conditions
12:53 AM 61.0 °F 55.9 °F 83% 30.05 in 10.0 mi SSW 13.8 mph - N/A   Clear
1:46 AM 62.6 °F 57.2 °F 82% 30.06 in 10.0 mi SSW 13.8 mph - N/A   Mostly Cloudy
1:53 AM 62.1 °F 57.0 °F 84% 30.06 in 10.0 mi SSW 10.4 mph - N/A   Mostly Cloudy
2:53 AM 62.1 °F 57.0 °F 84% 30.07 in 10.0 mi SW 16.1 mph 25.3 mph N/A   Mostly Cloudy
3:09 AM 62.6 °F 57.2 °F 82% 30.08 in 10.0 mi SW 15.0 mph 23.0 mph N/A   Scattered Clouds
3:53 AM 61.0 °F 57.0 °F 87% 30.07 in 10.0 mi SW 11.5 mph 19.6 mph N/A   Partly Cloudy
4:53 AM 60.1 °F 57.0 °F 90% 30.06 in 10.0 mi SW 10.4 mph - N/A   Scattered Clouds
5:14 AM 60.8 °F 57.2 °F 88% 30.07 in 10.0 mi SW 11.5 mph - N/A   Mostly Cloudy
5:53 AM 61.0 °F 57.9 °F 90% 30.06 in 10.0 mi SSW 13.8 mph - N/A   Overcast
6:53 AM 61.0 °F 57.9 °F 90% 30.08 in 10.0 mi SW 8.1 mph - N/A   Overcast
7:38 AM 60.8 °F 57.2 °F 88% 30.10 in 10.0 mi SSW 6.9 mph - N/A   Scattered Clouds
7:53 AM 60.1 °F 57.0 °F 90% 30.09 in 10.0 mi SW 6.9 mph - N/A   Clear
8:53 AM 61.0 °F 59.0 °F 93% 30.11 in 10.0 mi SSW 6.9 mph - N/A   Clear
9:42 AM 62.6 °F 59.0 °F 88% 30.13 in 10.0 mi SSW 11.5 mph - N/A   Mostly Cloudy
9:53 AM 63.0 °F 59.0 °F 87% 30.12 in 10.0 mi SW 9.2 mph - N/A   Mostly Cloudy
10:22 AM 64.4 °F 60.8 °F 88% 30.13 in 10.0 mi WSW 8.1 mph - N/A   Overcast
10:53 AM 64.9 °F 59.0 °F 81% 30.12 in 10.0 mi WSW 10.4 mph - N/A   Overcast
11:33 AM 66.2 °F 59.0 °F 78% 30.13 in 10.0 mi SW 13.8 mph - N/A   Mostly Cloudy
11:53 AM 69.1 °F 59.0 °F 70% 30.12 in 10.0 mi SW 11.5 mph - N/A   Overcast
12:07 PM 69.8 °F 57.2 °F 64% 30.13 in 10.0 mi SW 12.7 mph - N/A   Overcast
12:53 PM 70.0 °F 57.0 °F 63% 30.12 in 10.0 mi SW 10.4 mph 17.3 mph N/A   Mostly Cloudy
1:53 PM 71.1 °F 57.9 °F 63% 30.12 in 10.0 mi WSW 8.1 mph - N/A   Mostly Cloudy
2:53 PM 72.0 °F 55.9 °F 57% 30.10 in 10.0 mi WSW 9.2 mph - N/A   Mostly Cloudy
3:53 PM 73.9 °F 55.0 °F 52% 30.08 in 10.0 mi SW 13.8 mph 18.4 mph N/A   Scattered Clouds
4:53 PM 75.0 °F 55.0 °F 50% 30.07 in 10.0 mi West 6.9 mph - N/A   Mostly Cloudy
5:53 PM 73.9 °F 54.0 °F 50% 30.07 in 10.0 mi SW 8.1 mph - N/A   Partly Cloudy
6:53 PM 73.0 °F 53.1 °F 49% 30.08 in 10.0 mi West 4.6 mph - N/A   Partly Cloudy
7:53 PM 66.9 °F 55.0 °F 66% 30.10 in 10.0 mi Calm Calm - N/A   Clear
8:53 PM 60.1 °F 53.1 °F 78% 30.12 in 10.0 mi Calm Calm - N/A   Partly Cloudy
9:53 PM 60.1 °F 53.1 °F 78% 30.13 in 10.0 mi Calm Calm - N/A   Partly Cloudy
10:53 PM 57.9 °F 52.0 °F 81% 30.14 in 10.0 mi Calm Calm - N/A   Scattered Clouds
11:53 PM 57.0 °F 52.0 °F 83% 30.14 in 10.0 mi Calm Calm - N/A   Partly Cloudy